Location: Erp
(42.9417°N, 1.2009°E)
Time: 18:50:38
(UTC+00:00)

SJ-7 - Pass Details

Date: 20 April 2026
Orbit: 491 x 514 km, 97.7° (Epoch: 12 May)

Event Time Altitude Azimuth Distance (km) Brightness Sun altitude
Rises 19:07:40 0° 181° (S) 2,616 7.6 -5.0°
Reaches altitude 10° 19:09:50 10° 188° (S) 1,736 6.7 -5.4°
Maximum altitude 19:13:24 42° 261° (W) 741 5.6 -6.0°
Drops below altitude 10° 19:17:01 10° 334° (NNW) 1,752 7.7 -6.6°
Sets 19:19:12 0° 341° (NNW) 2,643 8.5 -7.0°
